Location: Hains Lake
(37.8540°N, 99.8578°W)
Time: 23:51:42
(UTC+00:00)

Explorer 7 - Pass Details

Date: 24 April 2021
Orbit: 484 x 677 km, 50.3° (Epoch: 14 May)

Event Time Altitude Azimuth Distance (km) Brightness Sun altitude
Rises 04:52:18 0° 309° (NW) 2,724 11.3 -33.5°
Reaches altitude 10° 04:55:07 10° 329° (NNW) 1,870 10.3 -33.8°
Enters shadow 04:57:13 17° 358° (N) 1,501 9.6 -34.0°
